Flag for Portugal Weather past 2 weeks in Faro, Portugal

Now
79 °F

Clear.


Feels Like: 81 °F
Forecast: 71 / 82 °F
Wind: 12 mph from East

Location: Faro / Aeroporto

Current Time: Aug 29, 2015 at 10:23:23 PM

Latest Report: Aug 29, 2015 at 10:00 PM


Visibility: 10 mi

Pressure: 29.89 "Hg

Humidity: 70%

Dew point: 68 °F

Location of FaroLocation

Historic Weather in Faro — Graph

°F

Faro temperature yesterday

Maximum temperature yesterday: 84 °F (at 1:00 PM)
Minimum temperature yesterday: 68 °F (at 7:30 AM)
Average temperature yesterday: 78 °F

Past Weeks' High & Low Weather Summary

 TemperatureHumidityPressure
High86 °F (Aug 20, 2:00 PM)100% (Aug 21, 7:30 AM)30.09 "Hg (Aug 21, 7:30 AM)
Low61 °F (Aug 15, 6:00 AM)35% (Aug 15, 6:00 PM)29.83 "Hg (Aug 17, 6:30 PM)
Average73 °F70%29.99 "Hg
* Reported Aug 14 9:00 PM — Aug 29 9:00 PM, Faro, Weather by CustomWeather, © 2015

Note: Actual official high and low records may vary slightly from our data, if they occured in-between our weather recording intervals... More about our weather records

Advertising

Faro weather history for previous 24 hours

 ConditionsComfort  
Time TempWeatherWind HumidityBarometerVisibility
9:00 PM
Sat, Aug 29
79 °FSunny.13 mph70%29.86 "Hg10 mi
8:30 PM79 °FSunny.12 mph70%29.86 "Hg10 mi
8:00 PM79 °FSunny.9 mph70%29.83 "Hg10 mi
7:30 PM79 °FSunny.18 mph70%29.83 "Hg10 mi
7:00 PM77 °FPassing clouds.8 mph79%29.89 "HgN/A
6:30 PM79 °FSunny.6 mph70%29.92 "Hg10 mi
6:00 PM81 °FPassing clouds.7 mph66%29.92 "HgN/A
5:30 PM81 °FSunny.10 mph66%29.89 "Hg10 mi
5:00 PM82 °FSunny.12 mph66%29.89 "Hg10 mi
4:30 PM82 °FSunny.10 mph66%29.92 "Hg10 mi
4:00 PM82 °FSunny.10 mph66%29.92 "Hg10 mi
3:30 PM82 °FSunny.10 mph66%29.92 "Hg10 mi
3:00 PM81 °FSunny.12 mph66%29.95 "Hg10 mi
2:30 PM82 °FSunny.13 mph66%29.95 "Hg10 mi
2:00 PM84 °FSunny.14 mph62%29.95 "Hg10 mi
1:30 PM84 °FSunny.13 mph58%29.95 "Hg10 mi
1:00 PM84 °FSunny.17 mph58%29.95 "Hg10 mi
12:30 PM84 °FSunny.16 mph51%29.95 "Hg10 mi
12:00 PM84 °FSunny.15 mph55%29.95 "Hg10 mi
11:00 AM84 °FSunny.16 mph51%29.92 "Hg10 mi
10:00 AM82 °FSunny.13 mph58%29.92 "Hg10 mi
9:30 AM82 °FSunny.14 mph58%29.92 "Hg10 mi
9:00 AM81 °FSunny.9 mph66%29.92 "Hg10 mi
8:30 AM79 °FSunny.8 mph70%29.92 "Hg10 mi
8:00 AM77 °FSunny.8 mph74%29.92 "Hg10 mi
7:00 AM77 °FClear.9 mph74%29.92 "Hg10 mi
6:30 AM77 °FClear.10 mph74%29.92 "Hg10 mi
6:00 AM77 °FClear.8 mph69%29.92 "Hg10 mi
5:30 AM77 °FClear.8 mph69%29.92 "Hg10 mi
5:00 AM77 °FClear.7 mph69%29.95 "Hg10 mi
4:30 AM77 °FClear.9 mph69%29.92 "Hg10 mi
4:00 AM77 °FClear.8 mph69%29.95 "Hg10 mi
3:30 AM75 °FClear.10 mph74%29.92 "Hg10 mi
3:00 AM79 °FClear.10 mph65%29.92 "Hg10 mi
2:30 AM79 °FClear.9 mph65%29.92 "Hg10 mi
2:00 AM79 °FClear.8 mph65%29.95 "Hg10 mi
1:30 AM75 °FClear.7 mph69%29.95 "Hg10 mi
1:00 AM81 °FClear.8 mph51%29.95 "Hg10 mi
12:30 AM81 °FClear.9 mph51%29.95 "Hg10 mi
12:00 AM77 °FPassing clouds.3 mph65%29.95 "HgN/A
11:30 PM
Fri, Aug 28
72 °FClear.2 mph83%29.92 "Hg10 mi
11:00 PM72 °FClear.2 mph83%29.92 "Hg10 mi
10:30 PM72 °FClear.3 mph83%29.92 "Hg10 mi
10:00 PM72 °FPassing clouds.3 mph83%29.92 "HgN/A
Weather by CustomWeather, © 2015

See weather overviewHow to use our weather pages